Location: Unspecified
(0.0000°N, 0.0000°E)
Time: 05:29:17
(UTC+00:00)

CANX-2 - Pass Details

Date: 23 May 2026
Orbit: 542 x 558 km, 97.9° (Epoch: 11 June)

Event Time Altitude Azimuth Distance (km) Brightness Sun altitude
Rises 04:39:22 0° 348° (NNW) 2,685 ? -18.1°
Reaches altitude 10° 04:41:50 10° 333° (NNW) 1,799 ? -17.5°
Enters shadow 04:43:59 20° 301° (WNW) 1,280 ? -17.0°
